Precipitable_Water
1.29 1.25 1.25 1.25 1.23 1.21 1.21 1.23 1.23 1.26 1.25 1.25 1.21 1.18 1.17 1.17 1.15 1.13 1.15 1.13 1.15 1.17 1.20 1.25 1.28 1.28 1.27 1.26 1.29 1.35 1.40 1.43 1.48 1.50 1.48 1.47 1.50 1.49 1.47 1.45 1.39 1.36 1.31 1.22 1.16 1.13 1.15 1.16 1.18 1.20 1.24 1.18 1.19 1.24 1.27 1.28 1.30 1.30 1.30 1.26 1.19 1.19 1.15 1.11 1.04 1.02 1.15 1.21 1.19 1.20 1.29 1.29 1.27 1.32 1.28 1.30 1.31 1.34 1.33 1.34 1.35 1.33 1.33 1.34 1.34
1.36 1.35 1.35 1.32 1.26 1.23 1.23 1.25 1.26 1.28 1.26 1.27 1.25 1.23 1.22 1.20 1.19 1.19 1.14 1.15 1.16 1.15 1.17 1.23 1.27 1.28 1.26 1.24 1.27 1.32 1.35 1.38 1.44 1.48 1.46 1.44 1.44 1.48 1.46 1.44 1.42 1.41 1.40 1.32 1.23 1.15 1.12 1.11 1.15 1.19 1.24 1.20 1.19 1.19 1.23 1.26 1.28 1.28 1.29 1.26 1.21 1.17 1.18 1.11 1.08 1.03 1.01 1.18 1.13 1.23 1.24 1.30 1.19 1.32 1.26 1.28 1.32 1.38 1.34 1.36 1.36 1.37 1.35 1.37 1.36
1.45 1.46 1.43 1.39 1.34 1.32 1.29 1.27 1.26 1.27 1.27 1.28 1.26 1.27 1.26 1.24 1.24 1.19 1.16 1.16 1.18 1.17 1.18 1.21 1.24 1.25 1.23 1.23 1.26 1.29 1.32 1.34 1.40 1.43 1.44 1.43 1.41 1.41 1.42 1.42 1.41 1.41 1.41 1.39 1.34 1.25 1.13 1.08 1.11 1.18 1.24 1.22 1.22 1.19 1.23 1.25 1.28 1.30 1.31 1.31 1.24 1.20 1.21 1.17 1.10 1.02 1.01 1.06 1.16 1.15 1.20 1.26 1.20 1.24 1.33 1.34 1.34 1.35 1.32 1.34 1.35 1.40 1.41 1.39 1.36
1.50 1.51 1.50 1.46 1.43 1.41 1.37 1.35 1.32 1.32 1.30 1.31 1.29 1.29 1.29 1.28 1.26 1.21 1.20 1.20 1.17 1.17 1.20 1.21 1.24 1.23 1.21 1.20 1.23 1.26 1.31 1.33 1.35 1.39 1.41 1.42 1.41 1.39 1.39 1.39 1.39 1.40 1.41 1.41 1.39 1.32 1.21 1.11 1.10 1.16 1.21 1.20 1.22 1.22 1.24 1.25 1.26 1.27 1.31 1.32 1.27 1.23 1.24 1.22 1.18 1.09 1.07 1.02 1.13 1.09 1.21 1.19 1.23 1.29 1.32 1.34 1.31 1.33 1.35 1.36 1.40 1.37 1.39 1.40 1.39
1.50 1.49 1.48 1.45 1.46 1.44 1.42 1.42 1.39 1.37 1.35 1.36 1.33 1.34 1.33 1.31 1.30 1.25 1.23 1.20 1.19 1.19 1.19 1.22 1.22 1.22 1.19 1.17 1.19 1.22 1.28 1.31 1.31 1.33 1.37 1.41 1.41 1.41 1.39 1.38 1.37 1.37 1.38 1.40 1.40 1.37 1.33 1.25 1.18 1.17 1.18 1.17 1.22 1.24 1.25 1.21 1.22 1.23 1.28 1.35 1.30 1.28 1.27 1.23 1.20 1.17 1.09 1.02 1.06 1.16 1.20 1.20 1.25 1.28 1.33 1.27 1.33 1.38 1.41 1.38 1.37 1.36 1.35 1.38 1.40
1.47 1.46 1.45 1.44 1.43 1.43 1.44 1.44 1.41 1.38 1.38 1.37 1.37 1.36 1.36 1.34 1.31 1.29 1.26 1.20 1.20 1.19 1.16 1.17 1.19 1.19 1.19 1.18 1.18 1.20 1.26 1.29 1.29 1.30 1.31 1.34 1.38 1.41 1.42 1.40 1.38 1.37 1.36 1.37 1.39 1.41 1.39 1.37 1.35 1.26 1.17 1.12 1.15 1.21 1.26 1.22 1.19 1.19 1.23 1.28 1.29 1.29 1.26 1.24 1.23 1.19 1.13 1.08 1.07 1.09 1.18 1.13 1.18 1.25 1.33 1.34 1.31 1.30 1.33 1.36 1.37 1.35 1.31 1.31 1.36
1.44 1.41 1.41 1.40 1.40 1.40 1.40 1.40 1.41 1.41 1.41 1.39 1.40 1.39 1.37 1.36 1.34 1.29 1.29 1.25 1.21 1.18 1.18 1.18 1.21 1.21 1.20 1.20 1.18 1.19 1.23 1.27 1.28 1.28 1.29 1.31 1.34 1.37 1.39 1.39 1.38 1.37 1.36 1.34 1.37 1.40 1.42 1.43 1.44 1.41 1.29 1.18 1.16 1.20 1.24 1.23 1.18 1.16 1.21 1.25 1.28 1.25 1.22 1.21 1.20 1.17 1.14 1.09 1.10 1.11 1.10 1.19 1.22 1.20 1.37 1.39 1.38 1.35 1.26 1.21 1.19 1.30 1.31 1.26 1.24
1.37 1.36 1.37 1.37 1.37 1.37 1.38 1.40 1.41 1.42 1.43 1.43 1.41 1.39 1.37 1.36 1.35 1.36 1.34 1.29 1.26 1.24 1.22 1.20 1.22 1.22 1.21 1.20 1.21 1.23 1.23 1.25 1.26 1.27 1.28 1.28 1.30 1.32 1.36 1.36 1.36 1.35 1.34 1.33 1.34 1.36 1.41 1.45 1.48 1.50 1.46 1.37 1.25 1.21 1.20 1.18 1.19 1.16 1.23 1.26 1.26 1.22 1.18 1.17 1.17 1.16 1.12 1.10 1.08 1.08 1.13 1.12 1.21 1.27 1.33 1.35 1.32 1.34 1.35 1.24 1.12 1.15 1.20 1.28 1.26
1.30 1.31 1.33 1.32 1.33 1.36 1.39 1.42 1.43 1.43 1.44 1.44 1.41 1.40 1.39 1.38 1.38 1.37 1.35 1.33 1.32 1.31 1.30 1.27 1.23 1.21 1.22 1.22 1.22 1.25 1.23 1.23 1.26 1.26 1.25 1.26 1.29 1.29 1.30 1.31 1.32 1.32 1.31 1.31 1.33 1.36 1.41 1.46 1.49 1.52 1.54 1.49 1.40 1.32 1.21 1.15 1.14 1.14 1.22 1.25 1.25 1.23 1.19 1.16 1.15 1.12 1.10 1.08 1.07 1.13 1.10 1.09 1.13 1.16 1.22 1.26 1.27 1.26 1.37 1.31 1.18 1.17 1.21 1.18 1.24
1.24 1.27 1.27 1.27 1.30 1.34 1.37 1.40 1.40 1.42 1.42 1.41 1.41 1.42 1.42 1.41 1.40 1.38 1.36 1.35 1.34 1.33 1.30 1.29 1.26 1.22 1.19 1.20 1.22 1.23 1.23 1.25 1.24 1.25 1.26 1.25 1.25 1.26 1.27 1.27 1.28 1.30 1.30 1.29 1.31 1.37 1.41 1.45 1.49 1.52 1.53 1.55 1.52 1.42 1.30 1.18 1.16 1.21 1.24 1.25 1.25 1.22 1.17 1.13 1.11 1.11 1.08 1.03 1.03 1.05 1.03 1.02 1.08 1.19 1.23 1.32 1.38 1.40 1.33 1.29 1.15 1.19 1.21 1.18 1.19
1.22 1.22 1.20 1.24 1.30 1.34 1.35 1.36 1.39 1.38 1.40 1.41 1.43 1.43 1.43 1.43 1.41 1.39 1.38 1.36 1.34 1.32 1.29 1.25 1.24 1.23 1.21 1.20 1.19 1.21 1.22 1.23 1.24 1.24 1.25 1.27 1.27 1.25 1.23 1.22 1.25 1.29 1.32 1.30 1.29 1.32 1.38 1.43 1.49 1.53 1.55 1.58 1.56 1.49 1.42 1.28 1.19 1.20 1.24 1.27 1.29 1.25 1.18 1.11 1.10 1.13 1.07 1.02 1.05 1.06 1.05 1.03 1.13 1.27 1.32 1.35 1.35 1.32 1.30 1.26 1.19 1.17 1.11 1.06 1.00
1.18 1.18 1.20 1.27 1.30 1.31 1.32 1.35 1.35 1.36 1.39 1.39 1.41 1.43 1.44 1.42 1.39 1.37 1.36 1.35 1.36 1.37 1.30 1.26 1.25 1.24 1.23 1.21 1.20 1.20 1.22 1.24 1.26 1.24 1.25 1.26 1.27 1.27 1.24 1.23 1.24 1.27 1.31 1.33 1.32 1.33 1.35 1.41 1.48 1.54 1.57 1.59 1.60 1.56 1.52 1.43 1.29 1.23 1.23 1.27 1.29 1.30 1.29 1.19 1.14 1.12 1.09 1.05 1.04 1.07 1.09 1.11 1.20 1.29 1.33 1.33 1.31 1.30 1.28 1.23 1.18 1.13 1.09 1.07 1.06
1.14 1.17 1.23 1.26 1.28 1.31 1.34 1.34 1.33 1.35 1.36 1.39 1.42 1.44 1.43 1.40 1.38 1.37 1.35 1.37 1.39 1.34 1.32 1.30 1.26 1.25 1.23 1.20 1.19 1.21 1.22 1.25 1.27 1.26 1.25 1.26 1.27 1.28 1.27 1.25 1.24 1.25 1.29 1.34 1.35 1.35 1.37 1.40 1.45 1.52 1.60 1.64 1.65 1.63 1.60 1.57 1.45 1.32 1.27 1.28 1.29 1.29 1.28 1.26 1.25 1.21 1.22 1.14 1.08 1.10 1.18 1.24 1.21 1.25 1.32 1.35 1.39 1.26 1.24 1.19 1.19 1.17 1.15 1.10 1.09
1.10 1.13 1.19 1.23 1.27 1.30 1.33 1.33 1.32 1.33 1.36 1.40 1.42 1.41 1.40 1.36 1.37 1.40 1.40 1.41 1.36 1.33 1.33 1.31 1.30 1.27 1.24 1.21 1.22 1.22 1.22 1.25 1.25 1.26 1.26 1.26 1.27 1.28 1.29 1.26 1.25 1.26 1.29 1.34 1.37 1.38 1.39 1.41 1.44 1.49 1.60 1.65 1.67 1.66 1.66 1.66 1.56 1.40 1.31 1.30 1.31 1.29 1.29 1.30 1.25 1.22 1.21 1.19 1.18 1.13 1.28 1.30 1.25 1.28 1.38 1.44 1.34 1.24 1.20 1.17 1.20 1.14 1.13 1.12 1.15
1.11 1.14 1.16 1.21 1.27 1.31 1.32 1.31 1.31 1.35 1.39 1.41 1.42 1.41 1.40 1.40 1.41 1.41 1.41 1.39 1.36 1.33 1.32 1.32 1.32 1.31 1.29 1.29 1.26 1.24 1.25 1.27 1.25 1.25 1.25 1.26 1.27 1.29 1.31 1.30 1.27 1.28 1.31 1.36 1.41 1.43 1.44 1.48 1.51 1.54 1.60 1.65 1.69 1.69 1.69 1.69 1.64 1.49 1.36 1.32 1.32 1.30 1.29 1.28 1.26 1.23 1.21 1.22 1.20 1.24 1.30 1.37 1.35 1.38 1.44 1.47 1.37 1.33 1.30 1.25 1.23 1.20 1.20 1.21 1.16
1.19 1.22 1.22 1.25 1.27 1.31 1.33 1.33 1.34 1.37 1.40 1.41 1.41 1.40 1.42 1.43 1.41 1.45 1.45 1.44 1.44 1.44 1.42 1.39 1.34 1.32 1.33 1.33 1.27 1.23 1.28 1.29 1.24 1.24 1.25 1.25 1.27 1.29 1.30 1.29 1.26 1.26 1.29 1.36 1.43 1.48 1.52 1.55 1.56 1.58 1.63 1.69 1.73 1.74 1.75 1.75 1.68 1.57 1.43 1.38 1.35 1.35 1.35 1.35 1.34 1.30 1.28 1.29 1.32 1.33 1.38 1.39 1.40 1.41 1.43 1.40 1.36 1.36 1.35 1.32 1.28 1.22 1.13 1.04 0.95
1.20 1.23 1.24 1.28 1.30 1.33 1.36 1.37 1.40 1.42 1.44 1.43 1.41 1.41 1.41 1.43 1.46 1.52 1.47 1.46 1.44 1.43 1.39 1.38 1.39 1.37 1.36 1.36 1.29 1.26 1.29 1.32 1.29 1.26 1.25 1.27 1.27 1.28 1.28 1.28 1.26 1.25 1.29 1.37 1.44 1.51 1.56 1.60 1.61 1.62 1.67 1.72 1.77 1.77 1.76 1.73 1.66 1.58 1.48 1.38 1.36 1.34 1.33 1.39 1.38 1.37 1.34 1.36 1.36 1.35 1.35 1.35 1.35 1.33 1.32 1.35 1.35 1.35 1.29 1.17 1.10 1.13 1.04 0.91 0.88
1.19 1.23 1.25 1.29 1.33 1.36 1.39 1.39 1.39 1.41 1.43 1.41 1.41 1.44 1.47 1.51 1.50 1.54 1.47 1.46 1.46 1.46 1.49 1.49 1.48 1.44 1.40 1.37 1.34 1.28 1.28 1.31 1.29 1.27 1.26 1.27 1.27 1.26 1.26 1.25 1.24 1.26 1.31 1.40 1.48 1.54 1.58 1.61 1.64 1.66 1.69 1.74 1.78 1.76 1.73 1.68 1.61 1.57 1.50 1.40 1.34 1.30 1.31 1.34 1.36 1.37 1.37 1.33 1.32 1.31 1.31 1.31 1.32 1.33 1.33 1.33 1.31 1.30 1.22 1.07 1.11 1.08 0.97 0.91 0.83
1.18 1.21 1.25 1.32 1.36 1.38 1.42 1.43 1.41 1.40 1.38 1.38 1.42 1.45 1.48 1.51 1.56 1.62 1.57 1.56 1.53 1.56 1.59 1.56 1.54 1.53 1.48 1.42 1.44 1.41 1.38 1.39 1.32 1.29 1.28 1.29 1.30 1.32 1.30 1.27 1.26 1.27 1.32 1.39 1.50 1.54 1.57 1.60 1.63 1.68 1.71 1.75 1.77 1.75 1.72 1.66 1.62 1.60 1.52 1.42 1.32 1.26 1.26 1.29 1.28 1.29 1.28 1.26 1.28 1.31 1.32 1.35 1.37 1.32 1.29 1.27 1.27 1.28 1.26 1.18 1.13 1.02 0.91 0.89 0.88
1.27 1.31 1.34 1.34 1.34 1.36 1.36 1.31 1.32 1.32 1.32 1.35 1.40 1.42 1.48 1.52 1.54 1.54 1.55 1.57 1.56 1.58 1.60 1.59 1.55 1.54 1.57 1.59 1.55 1.49 1.48 1.49 1.41 1.35 1.31 1.30 1.31 1.34 1.35 1.29 1.26 1.28 1.34 1.39 1.42 1.48 1.54 1.57 1.62 1.68 1.72 1.73 1.73 1.73 1.71 1.68 1.66 1.62 1.53 1.38 1.29 1.21 1.32 1.30 1.33 1.30 1.27 1.31 1.33 1.34 1.32 1.32 1.29 1.27 1.25 1.22 1.24 1.27 1.24 1.18 1.11 1.05 0.96 0.92 0.90
1.31 1.33 1.37 1.39 1.40 1.37 1.35 1.33 1.33 1.37 1.39 1.41 1.45 1.49 1.52 1.50 1.53 1.55 1.55 1.60 1.60 1.60 1.61 1.60 1.62 1.62 1.66 1.69 1.63 1.62 1.59 1.55 1.49 1.43 1.39 1.35 1.34 1.34 1.33 1.32 1.32 1.33 1.35 1.39 1.42 1.42 1.47 1.53 1.60 1.67 1.72 1.73 1.71 1.73 1.72 1.72 1.70 1.61 1.48 1.35 1.30 1.33 1.35 1.30 1.31 1.33 1.33 1.33 1.31 1.28 1.24 1.21 1.19 1.19 1.19 1.21 1.21 1.20 1.15 1.11 1.09 1.06 0.99 0.92 0.84
1.28 1.28 1.28 1.30 1.34 1.33 1.32 1.34 1.37 1.39 1.45 1.48 1.45 1.45 1.51 1.56 1.55 1.53 1.54 1.54 1.54 1.57 1.62 1.65 1.67 1.68 1.74 1.75 1.73 1.69 1.68 1.65 1.55 1.50 1.46 1.43 1.42 1.41 1.37 1.36 1.38 1.39 1.39 1.40 1.43 1.44 1.48 1.54 1.60 1.70 1.74 1.72 1.71 1.73 1.72 1.68 1.61 1.53 1.45 1.40 1.40 1.39 1.39 1.41 1.40 1.40 1.39 1.33 1.27 1.19 1.14 1.12 1.12 1.13 1.14 1.15 1.13 1.10 1.08 1.06 1.06 1.04 1.02 0.95 0.86
1.26 1.28 1.30 1.30 1.32 1.33 1.35 1.36 1.37 1.41 1.43 1.46 1.44 1.44 1.51 1.52 1.53 1.54 1.50 1.49 1.48 1.49 1.55 1.63 1.67 1.67 1.71 1.76 1.80 1.78 1.77 1.71 1.60 1.55 1.56 1.54 1.54 1.54 1.52 1.49 1.49 1.50 1.43 1.39 1.40 1.45 1.54 1.60 1.70 1.77 1.79 1.77 1.73 1.71 1.67 1.59 1.53 1.48 1.44 1.42 1.43 1.45 1.48 1.48 1.46 1.40 1.35 1.28 1.21 1.12 1.11 1.11 1.09 1.09 1.09 1.06 1.05 1.05 1.04 1.04 1.02 0.99 0.96 0.92 0.86
1.25 1.25 1.24 1.24 1.26 1.29 1.33 1.35 1.39 1.43 1.45 1.46 1.45 1.44 1.47 1.49 1.52 1.56 1.56 1.54 1.52 1.50 1.51 1.55 1.54 1.52 1.51 1.56 1.67 1.73 1.82 1.83 1.71 1.63 1.61 1.61 1.62 1.58 1.60 1.63 1.64 1.58 1.56 1.51 1.51 1.54 1.56 1.62 1.72 1.78 1.81 1.74 1.70 1.68 1.62 1.55 1.54 1.49 1.44 1.44 1.47 1.50 1.49 1.47 1.39 1.33 1.28 1.21 1.14 1.10 1.08 1.11 1.09 1.06 1.04 1.03 1.02 1.02 1.01 0.99 0.97 0.94 0.90 0.86 0.82
1.22 1.19 1.19 1.21 1.24 1.28 1.32 1.35 1.40 1.45 1.49 1.50 1.46 1.47 1.49 1.53 1.51 1.56 1.60 1.59 1.57 1.52 1.51 1.55 1.52 1.48 1.46 1.46 1.49 1.58 1.70 1.74 1.72 1.72 1.70 1.70 1.68 1.65 1.62 1.59 1.65 1.68 1.64 1.64 1.65 1.62 1.63 1.70 1.75 1.78 1.77 1.73 1.72 1.67 1.61 1.57 1.56 1.48 1.43 1.45 1.52 1.51 1.47 1.40 1.34 1.31 1.23 1.15 1.12 1.09 1.06 1.06 1.07 1.05 1.05 1.04 1.03 1.01 0.97 0.94 0.92 0.89 0.85 0.78 0.73
1.26 1.23 1.22 1.23 1.25 1.29 1.29 1.34 1.39 1.44 1.49 1.53 1.53 1.54 1.53 1.54 1.51 1.54 1.58 1.57 1.55 1.49 1.40 1.44 1.48 1.49 1.47 1.50 1.53 1.58 1.68 1.69 1.71 1.78 1.78 1.69 1.71 1.70 1.68 1.66 1.61 1.67 1.72 1.73 1.73 1.72 1.72 1.72 1.76 1.76 1.73 1.73 1.70 1.65 1.58 1.56 1.51 1.45 1.45 1.50 1.51 1.47 1.43 1.41 1.36 1.28 1.20 1.15 1.10 1.04 1.03 1.06 1.03 1.04 1.05 1.02 0.95 0.91 0.89 0.86 0.82 0.77 0.71 0.67 0.63
1.31 1.29 1.27 1.28 1.30 1.31 1.30 1.31 1.33 1.35 1.37 1.41 1.47 1.52 1.56 1.56 1.54 1.50 1.47 1.44 1.44 1.48 1.48 1.48 1.49 1.51 1.50 1.52 1.61 1.72 1.71 1.68 1.68 1.74 1.84 1.85 1.75 1.73 1.72 1.71 1.72 1.72 1.74 1.77 1.79 1.80 1.78 1.76 1.73 1.72 1.72 1.75 1.73 1.66 1.60 1.53 1.46 1.45 1.50 1.53 1.51 1.45 1.46 1.44 1.37 1.27 1.19 1.12 1.06 1.04 1.05 1.03 1.04 1.00 0.95 0.93 0.89 0.90 0.88 0.83 0.75 0.70 0.67 0.64 0.57
1.21 1.26 1.31 1.37 1.40 1.42 1.39 1.36 1.32 1.32 1.34 1.35 1.33 1.38 1.46 1.53 1.55 1.54 1.50 1.49 1.49 1.51 1.52 1.52 1.52 1.50 1.50 1.55 1.63 1.64 1.60 1.59 1.56 1.58 1.65 1.76 1.84 1.87 1.81 1.74 1.70 1.71 1.72 1.73 1.80 1.83 1.80 1.76 1.73 1.71 1.69 1.66 1.62 1.58 1.52 1.45 1.43 1.46 1.49 1.49 1.49 1.48 1.46 1.45 1.37 1.28 1.18 1.14 1.10 1.07 1.02 0.99 0.93 0.91 0.91 0.88 0.87 0.87 0.85 0.78 0.70 0.66 0.62 0.57 0.50
1.11 1.14 1.19 1.21 1.23 1.28 1.31 1.34 1.36 1.36 1.38 1.41 1.44 1.46 1.43 1.46 1.48 1.51 1.59 1.67 1.68 1.63 1.60 1.60 1.60 1.61 1.61 1.61 1.59 1.52 1.51 1.47 1.47 1.51 1.56 1.64 1.74 1.85 1.87 1.81 1.73 1.74 1.74 1.78 1.81 1.80 1.76 1.70 1.63 1.60 1.58 1.52 1.49 1.43 1.38 1.37 1.42 1.46 1.48 1.44 1.44 1.42 1.39 1.31 1.21 1.14 1.11 1.07 1.02 0.98 0.94 0.92 0.90 0.91 0.89 0.86 0.86 0.85 0.82 0.75 0.71 0.63 0.58 0.53 0.47
0.97 0.98 1.01 1.03 1.05 1.07 1.09 1.14 1.18 1.20 1.22 1.24 1.28 1.35 1.49 1.52 1.51 1.44 1.41 1.53 1.60 1.60 1.59 1.55 1.59 1.67 1.68 1.71 1.74 1.62 1.54 1.55 1.62 1.67 1.66 1.69 1.80 1.89 1.90 1.88 1.90 1.84 1.77 1.79 1.80 1.68 1.63 1.59 1.58 1.56 1.51 1.47 1.36 1.29 1.29 1.34 1.39 1.39 1.39 1.39 1.37 1.35 1.30 1.25 1.18 1.11 1.08 1.03 1.01 0.94 0.90 0.89 0.88 0.87 0.85 0.83 0.85 0.82 0.78 0.72 0.65 0.59 0.52 0.49 0.46
0.95 0.96 0.97 0.97 0.99 1.01 1.02 1.02 1.04 1.05 1.05 1.06 1.06 1.00 0.99 1.08 1.17 1.21 1.27 1.34 1.43 1.50 1.54 1.57 1.57 1.60 1.61 1.60 1.68 1.73 1.75 1.77 1.76 1.73 1.71 1.73 1.82 1.92 2.00 1.99 1.99 1.94 1.88 1.81 1.76 1.68 1.62 1.60 1.59 1.55 1.50 1.37 1.28 1.26 1.31 1.33 1.34 1.29 1.27 1.30 1.30 1.28 1.24 1.18 1.14 1.10 1.04 1.00 0.97 0.93 0.91 0.88 0.86 0.85 0.83 0.82 0.79 0.75 0.71 0.66 0.61 0.55 0.50 0.48 0.45
0.97 0.98 1.01 1.04 1.05 1.05 1.05 1.04 1.04 1.03 1.01 1.00 0.96 0.92 0.90 0.89 0.93 1.03 1.04 1.02 1.03 1.08 1.19 1.33 1.43 1.49 1.55 1.60 1.62 1.64 1.68 1.70 1.72 1.76 1.79 1.82 1.86 1.96 1.98 1.90 1.83 1.89 1.98 2.01 1.73 1.59 1.60 1.58 1.52 1.46 1.38 1.31 1.28 1.30 1.31 1.30 1.29 1.28 1.28 1.24 1.21 1.24 1.21 1.13 1.13 1.09 1.02 0.97 0.92 0.90 0.89 0.88 0.87 0.86 0.83 0.81 0.75 0.69 0.63 0.57 0.53 0.51 0.49 0.47 0.43
1.04 1.05 1.07 1.09 1.08 1.05 1.02 1.00 1.01 1.00 0.97 0.94 0.92 0.92 0.90 0.89 0.84 0.85 0.97 1.05 1.03 1.02 1.05 1.08 1.13 1.25 1.39 1.51 1.63 1.63 1.60 1.60 1.64 1.73 1.84 1.92 1.94 1.96 1.94 1.93 1.78 1.67 1.95 2.07 1.87 1.71 1.64 1.55 1.47 1.42 1.36 1.27 1.26 1.26 1.29 1.28 1.25 1.26 1.24 1.23 1.21 1.23 1.20 1.18 1.16 1.07 1.00 0.95 0.92 0.90 0.90 0.89 0.87 0.84 0.81 0.76 0.68 0.62 0.58 0.53 0.52 0.50 0.47 0.44 0.40
1.09 1.08 1.06 1.05 1.03 1.02 1.03 1.03 1.03 1.02 1.03 1.00 0.94 0.93 0.95 0.95 0.91 0.89 0.85 0.87 0.95 1.02 1.10 1.09 1.10 1.13 1.24 1.44 1.65 1.80 1.80 1.71 1.71 1.83 1.95 1.99 1.98 1.99 1.92 1.84 1.72 1.73 1.69 1.89 1.97 1.75 1.61 1.50 1.47 1.41 1.33 1.24 1.22 1.24 1.28 1.29 1.31 1.30 1.32 1.29 1.28 1.25 1.24 1.21 1.09 1.02 0.98 0.94 0.92 0.92 0.91 0.89 0.87 0.81 0.75 0.70 0.65 0.60 0.54 0.51 0.50 0.47 0.44 0.40 0.36
1.10 1.09 1.09 1.09 1.08 1.08 1.10 1.11 1.09 1.08 1.07 1.03 1.00 1.00 1.02 1.04 1.02 0.96 0.92 0.90 0.91 0.92 0.98 1.10 1.18 1.22 1.23 1.26 1.33 1.67 1.90 1.87 1.93 1.90 1.91 1.96 1.90 1.82 1.92 1.82 1.72 1.66 1.73 1.75 1.76 1.74 1.59 1.52 1.45 1.40 1.30 1.25 1.25 1.30 1.33 1.34 1.34 1.33 1.29 1.28 1.29 1.26 1.21 1.11 1.02 0.99 0.95 0.93 0.93 0.94 0.91 0.88 0.84 0.79 0.72 0.66 0.60 0.55 0.51 0.49 0.47 0.44 0.40 0.37 0.35
1.12 1.10 1.10 1.09 1.09 1.10 1.12 1.13 1.12 1.10 1.08 1.06 1.05 1.04 1.05 1.04 1.01 1.00 1.01 1.00 1.00 1.01 1.05 1.13 1.20 1.29 1.28 1.30 1.41 1.56 1.71 1.90 1.98 2.05 2.01 1.96 1.83 1.82 1.69 1.69 1.72 1.73 1.84 1.85 1.69 1.62 1.58 1.51 1.48 1.39 1.35 1.32 1.35 1.38 1.37 1.36 1.33 1.31 1.31 1.29 1.26 1.21 1.13 1.04 0.99 0.96 0.95 0.95 0.95 0.94 0.90 0.86 0.80 0.75 0.71 0.65 0.59 0.54 0.51 0.48 0.44 0.40 0.37 0.35 0.35
1.16 1.16 1.16 1.17 1.16 1.15 1.15 1.15 1.13 1.10 1.08 1.08 1.08 1.07 1.06 1.05 1.04 1.04 1.06 1.06 1.07 1.12 1.12 1.11 1.14 1.21 1.27 1.27 1.36 1.39 1.57 1.76 1.93 2.05 2.12 1.89 1.89 1.80 1.77 1.76 1.73 1.72 1.60 1.64 1.63 1.58 1.52 1.46 1.43 1.40 1.38 1.39 1.41 1.41 1.39 1.35 1.33 1.32 1.33 1.33 1.27 1.17 1.06 1.00 0.97 0.97 0.97 0.96 0.94 0.91 0.87 0.82 0.77 0.74 0.66 0.59 0.55 0.52 0.49 0.45 0.39 0.36 0.34 0.34 0.30
1.18 1.18 1.19 1.21 1.20 1.19 1.16 1.13 1.11 1.11 1.10 1.10 1.10 1.08 1.03 1.02 1.03 1.06 1.08 1.09 1.09 1.11 1.11 1.06 1.10 1.11 1.17 1.31 1.39 1.41 1.27 1.70 2.00 2.13 2.01 2.02 1.82 1.82 1.83 1.64 1.55 1.52 1.53 1.54 1.53 1.50 1.47 1.44 1.43 1.41 1.43 1.44 1.42 1.40 1.38 1.36 1.35 1.36 1.34 1.29 1.20 1.09 1.01 0.98 0.99 1.00 1.00 0.96 0.92 0.88 0.84 0.77 0.76 0.69 0.63 0.57 0.53 0.49 0.43 0.37 0.35 0.35 0.35 0.33 0.28
1.17 1.19 1.19 1.19 1.18 1.18 1.16 1.13 1.11 1.09 1.08 1.09 1.08 1.08 1.04 1.03 1.03 1.06 1.08 1.08 1.05 1.06 1.07 1.10 1.14 1.18 1.35 1.53 1.64 1.61 1.46 1.66 1.94 2.02 1.81 1.72 1.83 1.74 1.65 1.61 1.61 1.59 1.54 1.52 1.54 1.50 1.42 1.40 1.42 1.43 1.42 1.39 1.37 1.39 1.40 1.38 1.38 1.34 1.29 1.20 1.09 1.00 0.97 0.97 0.98 0.99 0.97 0.92 0.88 0.85 0.79 0.73 0.69 0.64 0.60 0.55 0.49 0.42 0.37 0.35 0.35 0.34 0.33 0.32 0.31
1.14 1.16 1.17 1.18 1.19 1.18 1.18 1.16 1.16 1.12 1.09 1.08 1.09 1.10 1.09 1.10 1.10 1.08 1.06 1.03 0.98 0.98 1.03 1.10 1.16 1.28 1.41 1.51 1.54 1.61 1.51 1.57 1.74 1.71 1.65 1.59 1.56 1.60 1.62 1.58 1.55 1.49 1.46 1.50 1.47 1.43 1.42 1.45 1.44 1.40 1.37 1.39 1.40 1.40 1.41 1.36 1.31 1.26 1.17 1.08 1.01 0.97 0.97 0.98 0.98 0.96 0.92 0.88 0.81 0.76 0.70 0.67 0.65 0.62 0.56 0.49 0.42 0.39 0.36 0.35 0.35 0.35 0.35 0.33 0.31
1.15 1.13 1.11 1.10 1.10 1.12 1.13 1.14 1.15 1.13 1.12 1.12 1.11 1.09 1.06 1.09 1.13 1.14 1.09 1.03 1.00 0.99 1.02 1.07 1.15 1.24 1.39 1.44 1.54 1.56 1.56 1.60 1.57 1.51 1.51 1.52 1.56 1.57 1.57 1.57 1.56 1.56 1.58 1.52 1.48 1.47 1.44 1.43 1.40 1.36 1.37 1.39 1.41 1.39 1.36 1.29 1.22 1.15 1.08 1.04 1.00 0.96 0.96 0.94 0.93 0.89 0.83 0.77 0.71 0.68 0.67 0.65 0.62 0.55 0.45 0.42 0.41 0.39 0.37 0.35 0.35 0.36 0.35 0.34 0.31
1.18 1.16 1.13 1.11 1.10 1.09 1.07 1.07 1.10 1.12 1.14 1.13 1.12 1.12 1.13 1.14 1.16 1.21 1.17 1.15 1.09 1.09 1.07 1.16 1.20 1.26 1.32 1.43 1.51 1.56 1.56 1.56 1.56 1.56 1.56 1.55 1.57 1.59 1.58 1.58 1.63 1.59 1.51 1.47 1.44 1.43 1.43 1.41 1.39 1.39 1.38 1.39 1.37 1.32 1.26 1.19 1.13 1.07 1.02 0.97 0.93 0.90 0.88 0.86 0.85 0.81 0.76 0.70 0.68 0.66 0.65 0.62 0.55 0.47 0.45 0.45 0.42 0.38 0.37 0.36 0.35 0.35 0.35 0.33 0.31
1.24 1.23 1.24 1.22 1.17 1.11 1.08 1.09 1.12 1.14 1.15 1.16 1.17 1.19 1.22 1.19 1.21 1.21 1.24 1.23 1.26 1.21 1.21 1.18 1.24 1.29 1.30 1.37 1.49 1.63 1.59 1.51 1.46 1.45 1.45 1.50 1.55 1.53 1.55 1.53 1.52 1.53 1.54 1.53 1.52 1.48 1.42 1.38 1.38 1.38 1.36 1.32 1.27 1.22 1.17 1.12 1.07 1.02 0.97 0.92 0.89 0.85 0.84 0.83 0.80 0.75 0.71 0.67 0.65 0.63 0.60 0.56 0.49 0.46 0.46 0.44 0.43 0.41 0.38 0.37 0.35 0.35 0.33 0.32 0.30
1.27 1.27 1.26 1.27 1.28 1.27 1.21 1.17 1.14 1.15 1.17 1.20 1.20 1.22 1.20 1.24 1.23 1.27 1.25 1.31 1.28 1.35 1.39 1.30 1.26 1.25 1.28 1.33 1.40 1.43 1.41 1.39 1.39 1.41 1.44 1.40 1.40 1.42 1.44 1.49 1.51 1.52 1.49 1.46 1.44 1.44 1.42 1.39 1.36 1.33 1.30 1.27 1.25 1.22 1.15 1.11 1.05 0.98 0.92 0.88 0.86 0.86 0.83 0.79 0.73 0.68 0.65 0.63 0.62 0.60 0.57 0.53 0.49 0.47 0.46 0.45 0.44 0.41 0.38 0.37 0.35 0.33 0.32 0.30 0.29
1.27 1.27 1.27 1.24 1.26 1.26 1.27 1.28 1.26 1.22 1.22 1.20 1.19 1.17 1.19 1.18 1.20 1.22 1.30 1.27 1.31 1.32 1.38 1.41 1.37 1.31 1.28 1.29 1.33 1.35 1.36 1.37 1.36 1.34 1.35 1.36 1.36 1.40 1.44 1.45 1.46 1.43 1.44 1.44 1.47 1.46 1.42 1.36 1.30 1.27 1.26 1.24 1.21 1.15 1.10 1.05 0.99 0.94 0.92 0.90 0.87 0.82 0.78 0.74 0.70 0.68 0.66 0.64 0.62 0.58 0.54 0.50 0.48 0.47 0.46 0.46 0.44 0.40 0.37 0.36 0.34 0.31 0.30 0.29 0.28
1.26 1.27 1.29 1.28 1.27 1.28 1.29 1.30 1.32 1.31 1.29 1.23 1.18 1.17 1.17 1.18 1.15 1.21 1.20 1.26 1.30 1.31 1.33 1.35 1.38 1.39 1.36 1.35 1.34 1.36 1.37 1.38 1.39 1.40 1.39 1.42 1.44 1.43 1.46 1.47 1.47 1.49 1.47 1.45 1.42 1.39 1.35 1.33 1.30 1.25 1.20 1.14 1.09 1.05 1.01 0.97 0.96 0.95 0.94 0.90 0.86 0.80 0.77 0.75 0.73 0.70 0.67 0.64 0.61 0.56 0.52 0.49 0.47 0.47 0.46 0.45 0.42 0.40 0.37 0.35 0.34 0.32 0.30 0.29 0.27
1.30 1.30 1.29 1.30 1.29 1.29 1.29 1.31 1.30 1.31 1.30 1.29 1.28 1.27 1.25 1.19 1.21 1.18 1.19 1.22 1.27 1.29 1.27 1.29 1.32 1.34 1.36 1.37 1.36 1.38 1.38 1.36 1.37 1.38 1.41 1.44 1.48 1.49 1.47 1.48 1.44 1.40 1.38 1.36 1.36 1.34 1.32 1.28 1.21 1.14 1.08 1.05 1.02 0.99 0.97 0.96 0.94 0.93 0.91 0.88 0.84 0.80 0.76 0.73 0.70 0.68 0.66 0.64 0.61 0.56 0.51 0.47 0.46 0.45 0.44 0.42 0.40 0.37 0.35 0.34 0.33 0.31 0.30 0.29 0.27
1.25 1.24 1.25 1.25 1.27 1.24 1.24 1.23 1.21 1.20 1.23 1.25 1.25 1.26 1.24 1.27 1.27 1.27 1.29 1.28 1.26 1.24 1.25 1.29 1.30 1.33 1.34 1.34 1.36 1.38 1.37 1.35 1.34 1.32 1.32 1.31 1.31 1.32 1.31 1.29 1.30 1.30 1.30 1.30 1.27 1.23 1.18 1.13 1.11 1.08 1.05 1.03 1.01 0.97 0.95 0.94 0.93 0.90 0.87 0.83 0.78 0.74 0.71 0.67 0.66 0.65 0.64 0.61 0.58 0.54 0.50 0.46 0.44 0.42 0.40 0.38 0.36 0.35 0.34 0.33 0.33 0.31 0.30 0.28 0.27
1.18 1.18 1.17 1.18 1.15 1.16 1.16 1.17 1.16 1.16 1.16 1.17 1.19 1.19 1.22 1.23 1.24 1.28 1.33 1.32 1.32 1.31 1.31 1.31 1.34 1.36 1.38 1.38 1.36 1.35 1.38 1.40 1.37 1.37 1.34 1.32 1.31 1.30 1.31 1.30 1.29 1.28 1.25 1.21 1.19 1.16 1.14 1.11 1.10 1.09 1.06 1.03 0.99 0.96 0.94 0.93 0.90 0.86 0.82 0.78 0.74 0.69 0.64 0.62 0.60 0.58 0.55 0.54 0.51 0.48 0.46 0.44 0.41 0.39 0.37 0.35 0.35 0.35 0.34 0.33 0.31 0.29 0.27 0.26 0.25
1.07 1.09 1.10 1.11 1.12 1.12 1.17 1.16 1.18 1.17 1.16 1.16 1.14 1.13 1.15 1.18 1.19 1.19 1.22 1.26 1.30 1.33 1.35 1.33 1.34 1.34 1.35 1.36 1.42 1.40 1.36 1.39 1.39 1.37 1.33 1.30 1.28 1.25 1.23 1.22 1.20 1.17 1.16 1.14 1.12 1.12 1.11 1.11 1.10 1.07 1.03 0.99 0.96 0.94 0.92 0.89 0.85 0.82 0.79 0.76 0.72 0.68 0.64 0.60 0.57 0.51 0.48 0.45 0.42 0.40 0.38 0.36 0.35 0.33 0.32 0.32 0.32 0.32 0.30 0.29 0.28 0.26 0.23 0.23 0.24
1.02 1.01 1.01 1.02 1.03 1.05 1.05 1.07 1.07 1.11 1.14 1.14 1.15 1.13 1.13 1.13 1.12 1.14 1.15 1.16 1.19 1.23 1.28 1.36 1.38 1.38 1.35 1.37 1.36 1.31 1.28 1.27 1.28 1.27 1.25 1.22 1.20 1.18 1.15 1.14 1.13 1.10 1.08 1.08 1.08 1.08 1.09 1.08 1.06 1.03 0.99 0.96 0.94 0.92 0.90 0.87 0.84 0.82 0.78 0.74 0.71 0.68 0.64 0.60 0.57 0.53 0.49 0.44 0.39 0.34 0.32 0.30 0.29 0.28 0.27 0.27 0.25 0.24 0.23 0.23 0.22 0.21 0.20 0.23 0.26
Wind_Speed
26 26 26 26 26 27 27 27 27 27 26 26 26 25 25 25 24 24 24 24 23 23 23 23 22 22 21 22 21 20 19 19 18 17 16 15 15 14 13 12 12 12 11 11 11 10 10 10 10 10 10 10 10 9 9 9 9 9 10 10 10 11 11 11 12 12 12 12 12 12 12 13 14 14 15 15 16 16 17 18 19 19 20 21 21
26 26 25 25 26 26 26 27 27 27 27 27 27 26 26 26 25 25 24 24 24 24 24 24 23 23 22 23 23 22 21 20 19 18 17 17 16 15 14 14 13 13 12 12 12 12 11 11 11 11 12 12 11 11 10 10 10 11 11 11 11 12 12 12 12 13 13 13 13 13 14 14 15 15 15 16 17 17 18 19 20 21 21 22 23
27 27 26 25 25 25 25 26 27 27 27 27 27 27 27 26 26 26 25 25 25 25 25 25 25 24 24 24 24 23 22 21 21 20 19 18 17 16 15 15 15 14 14 13 13 13 13 13 13 13 13 13 13 13 13 12 12 12 12 12 12 12 12 13 13 13 14 14 14 14 14 15 15 16 16 17 18 18 19 20 20 21 22 23 24
28 27 27 26 26 25 25 25 26 26 27 27 27 27 27 26 27 27 26 26 26 26 26 26 26 25 25 25 25 24 23 22 22 21 20 19 18 17 17 16 16 15 15 14 14 14 14 14 14 14 14 14 14 14 15 15 14 14 14 14 14 13 13 13 14 14 15 15 15 15 15 15 16 16 17 17 18 19 19 20 21 21 22 24 24
28 28 28 27 26 26 26 26 26 26 26 26 26 26 26 26 26 27 27 27 26 26 27 27 26 26 26 26 26 25 24 24 23 22 22 21 20 19 18 17 17 17 16 16 15 15 14 14 14 15 15 15 16 16 17 16 16 16 15 15 15 15 14 15 15 14 15 16 16 16 16 17 17 17 17 18 18 19 20 21 21 22 23 24 25
29 28 28 28 27 27 27 26 26 26 26 25 25 25 26 26 26 26 27 27 27 26 27 27 27 27 27 27 27 26 26 25 25 24 23 22 21 20 19 19 18 18 17 17 17 16 15 15 15 15 16 16 17 18 18 17 17 16 16 16 16 16 16 16 15 15 16 17 17 17 17 17 18 18 18 19 19 20 21 21 22 23 24 25 26
29 28 29 29 28 27 27 27 26 26 26 25 25 25 25 25 25 25 26 27 27 26 27 27 27 28 28 28 28 27 27 26 26 26 25 24 23 22 21 20 20 19 19 18 18 17 16 16 16 16 17 17 18 18 18 17 17 17 17 16 16 16 16 16 16 16 16 17 18 18 18 18 18 19 19 20 21 21 22 22 23 23 24 26 27
29 29 29 29 28 28 27 27 26 25 25 25 24 24 24 25 25 25 25 26 27 27 27 27 28 28 28 28 29 28 28 28 27 27 26 25 24 24 23 22 21 20 20 20 19 18 18 17 17 17 17 17 17 17 16 16 17 17 17 17 16 17 17 17 17 17 17 18 18 18 19 19 20 20 21 22 22 22 22 23 24 25 26 27 29
29 29 29 29 29 28 28 27 26 25 25 24 24 24 24 24 24 24 25 25 26 27 27 27 27 28 29 29 29 29 29 29 29 28 28 27 26 25 24 23 22 22 21 21 21 20 19 18 18 18 18 17 17 16 16 16 17 17 17 17 17 17 17 17 17 18 18 18 19 19 19 20 21 21 22 22 23 23 23 24 25 26 27 28 29
30 29 29 30 29 29 28 27 26 26 26 25 25 25 24 24 23 23 24 24 25 26 27 27 28 28 29 29 30 30 30 30 30 30 29 28 28 27 26 25 24 23 23 22 22 21 20 20 20 19 19 18 18 18 17 17 18 18 18 18 18 18 18 18 18 19 19 19 20 20 20 21 22 22 22 23 23 24 24 25 26 26 27 28 29
31 30 29 30 29 29 28 28 27 27 26 26 25 25 25 25 24 24 24 24 24 25 26 27 28 28 29 29 30 30 30 31 31 31 31 30 29 28 27 26 26 25 24 24 23 22 21 21 21 20 20 19 19 19 18 18 19 19 19 19 19 19 19 19 19 20 20 20 20 21 21 22 22 22 22 23 23 24 24 25 26 27 27 29 30
31 31 30 30 30 29 29 29 28 28 27 27 27 26 26 26 25 25 25 25 24 25 25 26 27 28 28 29 29 30 31 31 31 32 32 31 30 30 29 28 27 26 26 25 24 23 23 22 21 21 20 20 19 19 18 18 19 20 20 20 20 20 20 20 21 20 21 21 21 22 22 23 23 23 23 23 24 24 25 25 26 27 28 29 31
31 31 30 30 30 30 29 29 29 29 29 28 28 28 28 27 27 26 26 26 26 26 26 26 26 27 28 28 29 30 30 31 32 32 32 32 32 31 30 29 28 28 27 26 26 25 24 23 22 22 21 20 20 19 19 19 20 21 21 21 21 21 22 22 22 22 21 22 22 23 23 23 23 24 24 24 24 25 25 26 27 28 29 30 31
31 31 31 30 30 30 30 30 30 30 30 30 30 30 30 29 29 28 28 28 28 28 28 28 28 28 28 29 29 30 30 31 32 33 33 33 33 32 31 31 30 29 29 28 27 27 26 24 24 23 22 21 21 20 20 21 21 22 22 22 22 23 23 23 23 22 22 22 23 23 23 23 24 24 24 24 25 25 26 27 27 28 29 31 32
31 31 31 31 31 31 31 31 31 30 31 31 31 31 31 31 31 30 30 30 30 29 29 29 29 29 29 30 30 30 30 31 32 33 33 33 34 33 32 32 31 30 30 29 29 28 27 26 25 24 23 22 22 21 21 22 22 22 22 23 23 24 24 24 23 23 23 23 23 24 24 24 24 24 24 24 25 25 26 27 28 28 30 31 32
30 30 30 31 31 31 31 31 31 31 31 32 32 33 33 32 32 32 32 32 31 31 31 31 31 31 31 32 32 31 31 31 31 33 34 34 34 34 33 33 32 31 31 30 30 29 29 27 26 25 24 23 23 22 22 22 23 23 23 23 23 24 24 24 23 23 23 23 24 24 24 24 24 24 24 24 25 26 26 27 28 28 29 30 31
29 29 30 30 30 31 31 31 32 32 32 33 33 33 34 34 33 33 34 34 33 33 33 33 33 33 33 34 33 32 32 32 32 33 34 34 35 34 34 34 32 32 32 32 31 30 30 29 27 26 25 25 24 24 24 23 23 23 23 23 24 24 24 24 23 23 23 23 23 23 23 23 23 23 24 24 25 26 26 27 27 28 28 29 30
29 30 30 30 30 31 32 32 32 33 33 34 35 34 34 34 34 35 35 35 35 35 35 35 35 35 35 35 34 34 34 34 33 34 34 35 35 35 35 35 33 33 33 32 32 31 30 30 29 28 27 26 25 25 25 24 23 23 24 24 24 24 24 23 23 23 23 23 23 23 23 23 23 23 24 24 25 26 26 26 26 27 28 29 30
30 30 31 31 31 32 32 32 32 33 33 33 34 34 34 34 35 35 36 36 36 36 36 37 36 36 36 37 37 36 36 35 35 35 36 36 36 36 36 36 35 34 34 33 32 32 31 30 30 29 28 27 26 26 25 24 23 24 24 24 24 24 23 23 23 22 22 22 23 23 23 23 23 24 24 24 25 26 26 26 26 27 28 29 30
29 30 30 31 31 32 31 31 32 32 32 32 32 32 32 33 34 35 36 36 37 37 37 38 38 38 38 38 39 39 38 38 37 37 37 38 38 38 37 37 36 35 34 34 33 32 32 31 30 29 29 28 27 27 26 25 24 24 24 24 24 24 23 23 22 22 22 23 23 23 23 23 23 23 24 24 25 25 25 25 26 26 27 28 29
28 28 29 30 30 31 31 32 32 32 32 32 32 33 33 34 34 35 36 36 37 38 39 39 39 39 39 40 40 40 40 40 40 39 39 39 40 40 39 38 37 36 35 35 34 33 32 32 31 30 29 28 28 27 26 25 25 24 24 24 24 23 23 22 22 22 22 22 22 23 23 23 23 23 24 24 24 24 24 24 25 25 26 27 28
27 28 28 29 29 30 31 32 32 32 32 32 33 34 34 35 35 35 36 36 38 39 39 39 39 39 40 41 41 41 41 41 41 41 41 41 41 41 41 40 39 38 37 36 35 34 34 33 31 30 29 29 28 28 27 26 25 25 24 24 23 22 22 22 22 22 22 22 22 22 22 23 23 23 23 23 23 23 23 23 24 25 26 26 27
27 27 28 28 29 30 30 31 32 32 32 33 34 34 35 35 36 36 36 37 38 39 40 40 40 40 40 41 41 42 42 42 42 43 43 42 43 43 42 42 41 40 39 37 36 35 34 33 31 30 30 30 29 28 27 25 25 25 24 23 22 22 22 22 21 21 21 21 21 22 22 22 22 22 22 22 22 22 22 23 23 24 25 26 26
26 27 27 28 29 29 30 31 32 32 33 33 34 35 35 36 36 37 37 38 39 39 39 40 40 42 42 42 42 42 42 42 43 44 44 43 44 44 44 43 42 42 41 39 37 35 35 34 32 31 31 31 29 27 26 25 25 24 23 23 22 22 21 21 21 21 21 21 21 22 22 22 22 22 21 21 21 21 21 22 23 24 25 25 26
25 26 27 27 28 29 30 30 31 32 33 34 35 35 36 37 38 38 39 39 40 41 41 40 41 43 43 43 43 43 43 43 44 44 45 45 45 45 45 45 44 44 43 40 38 37 35 34 33 32 32 30 29 27 27 26 25 24 23 23 22 22 22 21 21 21 21 21 22 22 22 21 21 21 20 20 20 20 21 22 23 23 24 25 25
23 24 25 26 27 28 29 30 31 32 33 34 35 36 37 38 38 39 40 41 42 42 42 42 42 43 43 43 43 43 42 43 44 45 45 46 46 47 47 46 46 45 44 42 40 38 36 34 33 33 32 30 29 28 27 26 25 24 23 23 23 23 22 22 22 21 21 22 22 22 21 20 20 20 20 20 20 20 21 21 22 23 23 24 24
22 22 23 24 26 27 28 29 30 31 32 34 35 36 37 38 40 40 41 42 43 43 43 43 43 44 44 43 42 42 43 44 44 45 45 46 47 47 48 48 47 47 45 43 41 39 37 35 34 33 31 30 29 28 27 26 25 25 24 24 24 23 22 22 22 22 22 22 21 21 20 20 19 19 19 20 20 20 20 21 22 22 22 23 24
21 22 22 23 24 26 27 28 29 30 32 33 34 36 37 38 40 41 43 44 44 44 44 44 45 46 46 46 45 45 46 46 47 47 47 47 47 47 48 49 49 48 47 45 42 40 38 36 34 32 31 30 29 28 27 26 26 25 24 24 24 23 22 22 22 21 21 20 20 20 19 19 19 19 19 19 19 19 20 21 21 21 22 23 24
22 23 23 24 24 26 27 28 29 31 32 33 35 36 38 39 41 42 43 44 46 47 48 48 49 49 50 49 49 50 50 51 51 50 50 49 49 49 49 50 51 50 49 47 44 40 38 37 35 34 32 31 29 28 27 26 26 25 25 24 23 22 22 21 21 20 20 20 20 20 19 19 19 19 19 19 19 19 20 20 20 21 21 22 24
23 23 24 24 25 26 27 28 30 31 32 34 35 36 38 40 42 43 45 46 48 50 51 52 53 53 54 54 55 55 56 56 55 54 53 52 52 52 51 51 51 52 51 49 45 41 39 38 36 35 33 31 29 28 27 26 26 25 24 24 23 22 22 21 20 20 20 20 20 19 19 19 19 19 19 19 19 19 19 19 20 20 21 22 23
22 23 23 24 25 26 27 28 29 30 32 33 33 34 36 38 39 41 43 46 49 51 53 56 57 58 58 59 59 60 60 59 57 56 55 53 53 53 52 50 49 51 52 52 48 44 41 38 36 34 33 30 28 27 26 26 26 25 24 24 23 22 21 21 20 20 20 20 19 19 19 19 19 18 19 19 19 18 19 19 19 20 21 22 23
22 22 23 24 25 25 26 27 28 29 30 30 31 33 35 36 37 38 40 42 45 48 51 55 58 60 62 64 63 63 62 61 60 59 57 55 54 53 51 48 46 46 48 50 49 45 43 39 36 33 32 30 27 26 26 25 26 26 25 24 23 22 22 21 20 20 20 20 20 19 19 19 18 18 18 18 18 18 18 18 19 20 21 21 22
22 22 23 24 24 25 25 25 25 26 27 27 29 31 32 33 35 36 38 40 42 44 46 49 53 57 61 65 67 67 66 64 62 60 58 56 54 52 50 47 44 41 40 43 44 42 41 39 37 34 32 30 28 26 26 25 25 25 25 23 22 22 22 21 21 20 20 20 20 20 19 19 18 18 18 18 18 18 18 18 19 19 20 21 21
21 22 22 23 23 23 24 24 24 25 25 26 28 29 31 32 33 35 37 38 39 40 42 44 47 51 55 60 65 68 68 67 65 62 58 54 52 50 48 46 44 40 38 38 39 38 37 37 36 35 33 31 29 27 26 25 25 25 24 23 22 22 22 21 21 21 20 20 20 20 19 19 18 18 18 18 17 17 18 18 18 19 19 20 20
20 20 21 21 22 22 23 24 25 25 25 26 27 28 30 30 31 32 34 35 36 38 39 42 45 48 50 54 57 61 64 66 67 65 59 54 51 48 46 44 42 39 38 38 36 35 34 33 33 33 33 31 29 28 26 25 25 25 24 23 23 22 22 21 21 21 20 20 20 20 19 19 18 18 18 17 17 17 17 18 18 18 19 19 20
19 20 20 21 21 22 22 23 24 24 24 24 25 26 27 28 28 29 30 31 32 34 36 38 40 42 46 50 53 57 61 63 65 64 59 54 51 49 45 42 40 37 36 35 34 33 32 31 30 31 31 30 29 28 27 26 25 25 24 24 24 23 22 21 21 21 21 21 20 20 19 19 18 18 18 17 17 17 17 17 17 17 18 18 19
19 20 21 21 21 21 21 22 22 23 23 23 23 24 24 25 26 27 27 28 29 31 32 35 36 38 44 47 48 51 53 54 58 57 52 49 48 47 44 40 38 37 36 34 33 31 30 30 29 30 30 29 29 28 27 25 25 25 24 24 24 23 22 21 21 21 21 21 20 20 19 19 19 18 18 17 17 17 17 17 16 16 17 18 18
19 20 20 20 20 20 20 20 21 21 22 21 21 22 22 23 24 25 25 26 27 28 30 32 32 34 37 35 29 25 28 43 53 50 45 44 42 41 40 38 35 35 34 33 32 30 29 28 28 28 28 28 29 28 26 25 25 24 24 24 23 22 22 21 21 21 21 20 20 19 19 19 19 18 18 17 17 17 16 16 15 16 16 17 17
18 18 19 19 19 19 19 19 20 20 21 20 20 21 21 21 22 22 23 23 24 25 27 29 28 28 26 22 22 21 9 32 46 41 38 39 37 35 36 35 32 31 30 30 30 29 28 28 28 28 28 28 27 26 26 25 24 24 23 23 23 22 21 21 22 22 21 20 20 20 19 19 18 18 18 17 17 16 16 15 15 15 15 16 17
17 17 18 18 18 18 18 18 19 19 19 20 19 19 20 20 20 20 20 21 22 23 24 25 24 23 19 12 12 20 24 29 35 32 29 32 32 31 31 30 28 27 27 26 26 26 26 27 27 27 27 26 25 25 24 24 24 23 23 22 22 21 21 21 21 21 21 20 20 20 19 19 18 18 18 17 17 16 15 15 15 15 15 16 17
17 17 17 17 17 17 17 17 18 18 19 19 18 18 18 19 19 19 19 19 21 21 21 21 20 19 16 9 3 8 15 18 22 24 24 25 26 26 26 25 25 24 24 24 24 25 25 25 25 24 24 24 23 23 23 23 22 22 22 21 21 21 21 21 21 21 20 20 20 20 19 19 19 18 18 17 16 16 15 15 15 15 15 16 17
17 17 17 17 17 17 17 17 18 18 18 18 18 17 18 18 19 19 19 19 19 20 19 18 17 15 13 8 1 5 5 8 12 15 17 19 20 21 21 21 22 22 22 22 22 22 22 22 22 23 22 22 22 22 21 21 21 21 21 21 21 21 21 21 21 20 20 20 20 20 20 19 19 18 17 17 16 16 15 15 15 15 15 16 16
18 18 17 17 17 17 17 17 18 18 18 19 19 18 18 18 18 18 18 17 17 17 17 15 14 12 10 7 3 4 5 3 4 7 10 12 14 15 16 17 18 19 20 20 20 20 20 21 21 21 21 21 21 21 21 21 21 20 20 20 21 21 21 21 20 20 20 20 20 20 20 19 19 18 18 17 16 16 15 15 15 15 15 16 16
19 18 18 18 18 18 18 18 18 18 18 19 19 19 18 18 18 17 17 16 16 15 15 13 12 10 8 7 4 4 5 6 6 6 8 9 10 12 14 15 17 18 18 19 19 19 19 19 19 20 20 20 20 20 20 20 20 20 20 20 20 21 21 21 20 20 20 20 20 20 20 19 19 18 18 17 17 16 15 15 15 15 15 16 16
18 18 18 18 18 18 18 18 18 18 19 19 18 18 18 18 17 17 16 15 15 14 14 13 11 10 8 7 6 6 7 8 8 8 9 10 10 12 13 15 16 17 18 18 18 18 19 19 19 19 20 20 20 19 19 19 19 19 19 20 20 20 20 20 20 20 20 20 20 20 20 20 19 19 18 18 17 16 16 15 15 15 16 16 16
17 17 17 17 17 17 18 18 18 18 18 18 18 18 17 17 16 16 15 15 14 14 13 13 12 11 9 7 7 7 8 9 9 10 10 11 11 12 13 14 15 16 17 18 18 18 18 19 19 19 19 19 19 19 19 19 19 19 19 19 19 20 20 20 20 20 21 21 21 21 20 20 20 19 19 18 17 17 16 15 15 16 16 16 16
15 16 16 17 17 17 17 17 17 18 17 17 17 17 16 16 16 16 15 14 13 13 13 12 12 11 9 8 8 8 8 9 10 10 11 11 12 13 13 14 15 16 16 17 17 18 18 19 19 19 19 19 19 19 19 19 19 19 19 19 19 20 20 20 20 21 21 22 21 21 21 20 20 19 19 18 18 17 16 16 16 16 16 16 16
14 15 15 16 16 16 17 17 17 17 16 17 17 16 16 16 16 16 15 15 14 14 13 12 11 11 10 9 9 9 9 9 10 10 11 11 12 12 13 14 14 15 15 16 17 18 18 18 19 19 19 19 19 19 18 18 18 18 18 19 19 19 19 19 20 21 21 22 22 21 21 21 20 20 19 18 18 17 17 17 17 16 16 16 16
13 14 14 14 14 15 15 15 15 15 15 15 15 15 15 15 15 15 15 15 15 15 14 12 12 11 10 10 10 10 10 10 10 11 11 12 12 13 13 14 14 15 16 17 17 18 18 18 18 18 18 18 18 18 18 18 18 18 18 18 18 18 18 19 19 20 20 21 21 21 21 20 20 19 19 19 18 18 18 17 17 17 16 16 16
12 13 13 13 14 14 14 14 14 14 15 14 14 14 14 14 14 14 15 15 15 15 15 14 14 13 12 12 12 11 11 11 12 12 12 12 13 13 14 14 15 15 16 17 17 18 18 18 18 17 18 17 17 18 18 18 18 18 18 18 18 18 18 18 18 19 19 20 20 20 20 20 19 19 19 19 19 19 18 18 17 17 16 16 16
11 12 12 12 13 13 13 14 14 14 14 14 13 13 13 13 14 14 14 14 15 15 15 15 15 15 15 14 14 13 13 12 12 12 12 13 13 14 14 15 15 15 16 16 16 17 17 17 17 17 17 18 18 18 19 19 19 19 19 19 18 18 18 18 18 18 18 18 19 19 19 19 19 19 19 19 19 18 18 17 17 16 16 16 16
Wind_Direction
226 227 228 229 229 230 231 231 232 232 233 234 234 235 235 235 235 236 236 235 234 234 235 236 236 236 235 234 234 234 234 233 233 235 237 239 244 248 252 254 258 264 269 272 274 277 281 284 287 289 291 291 288 286 287 289 292 294 295 296 297 297 298 297 298 299 299 299 299 298 297 296 297 298 299 300 302 302 303 303 303 303 303 304 304
226 227 228 229 230 230 231 233 233 234 234 235 235 236 237 237 236 237 237 237 236 235 235 236 236 236 235 234 234 234 234 233 233 235 236 239 243 247 250 252 256 261 266 269 272 274 277 280 282 285 288 287 282 280 281 283 286 289 290 292 293 293 293 294 296 297 297 298 297 296 296 295 295 296 297 298 300 301 302 302 303 303 303 304 304
226 227 227 228 229 230 231 232 233 234 235 236 236 236 237 238 238 238 238 238 237 236 236 236 236 235 235 234 234 234 234 233 233 234 236 239 242 246 249 251 255 259 263 266 270 273 276 277 279 282 285 285 280 277 278 280 282 284 286 287 289 290 290 290 292 294 296 296 296 296 296 295 294 294 295 297 299 300 301 302 302 302 302 302 301
226 226 227 228 229 230 231 232 233 234 235 236 236 236 237 238 238 238 239 239 238 237 237 236 236 235 234 234 234 234 234 233 233 234 236 239 242 246 248 251 254 258 261 264 267 271 274 276 277 278 281 282 281 280 280 279 279 281 284 285 285 286 287 287 288 290 294 295 296 297 297 296 295 295 296 298 299 300 301 301 302 302 301 301 301
226 225 226 227 228 230 232 233 234 234 235 236 236 236 236 237 238 238 238 239 239 238 237 236 236 235 234 234 234 234 234 233 233 234 236 239 242 246 248 251 254 257 260 263 266 270 273 275 276 277 280 282 283 284 283 279 277 279 281 283 283 283 285 285 285 287 290 293 295 297 298 297 297 297 298 299 300 301 301 301 302 302 302 302 302
225 224 225 226 228 230 231 233 234 234 234 235 235 235 236 237 237 237 238 238 239 238 237 236 235 234 234 234 234 235 235 234 234 235 237 239 242 245 248 251 254 256 258 262 265 269 272 274 276 278 281 283 284 284 283 278 276 277 278 280 281 281 282 284 284 285 287 291 293 295 296 296 297 298 300 301 302 302 302 302 303 303 303 303 304
223 224 225 226 228 229 230 231 233 233 234 235 235 236 236 236 237 237 237 238 238 238 237 236 235 234 234 234 234 235 236 235 235 236 237 239 241 244 248 250 253 255 258 260 264 267 270 273 276 280 283 286 287 286 282 277 276 278 279 279 280 280 281 282 283 284 286 290 292 294 294 295 296 298 300 301 302 302 303 303 303 303 304 304 305
223 224 225 226 227 228 229 230 231 232 233 234 234 235 236 236 237 238 238 237 238 238 237 236 236 235 235 235 235 235 236 236 236 236 237 239 241 244 247 250 253 255 257 259 262 265 268 272 276 279 283 288 291 288 283 279 278 279 281 281 280 280 281 282 282 283 286 289 291 293 294 295 296 297 299 301 302 302 303 303 303 303 304 305 305
223 224 225 226 227 227 228 229 230 230 231 232 233 234 235 236 237 238 238 238 239 238 238 238 237 236 236 236 236 236 237 237 236 236 237 239 241 243 246 249 252 254 256 257 260 263 266 270 275 277 280 286 290 289 285 281 280 281 283 282 281 280 281 282 283 284 287 289 292 294 295 295 296 298 299 301 302 302 302 302 302 303 304 305 305
223 224 226 226 227 227 228 229 229 230 231 233 234 235 236 237 237 238 239 239 240 239 239 239 239 238 237 237 237 238 238 238 237 236 237 239 241 243 245 247 250 253 255 256 258 262 265 268 272 275 277 282 287 288 286 283 280 281 283 283 282 280 280 282 284 285 288 289 291 293 294 295 297 298 300 301 302 302 302 302 303 305 306 306 306
223 225 227 227 226 227 228 229 230 230 232 234 235 236 237 238 239 239 240 240 241 241 241 240 240 240 239 239 239 239 240 239 238 237 238 239 241 243 245 247 249 251 253 255 258 260 264 267 270 273 275 279 285 288 286 283 281 281 282 283 282 282 281 282 284 286 287 289 290 292 293 295 297 299 300 301 302 302 302 303 304 306 307 307 307
224 226 227 227 226 227 228 229 231 232 233 234 236 237 238 239 240 240 241 241 242 242 242 242 242 242 242 241 241 242 242 241 239 238 239 239 241 243 245 246 248 250 252 255 257 260 263 265 268 271 273 276 283 286 285 282 281 282 282 282 283 284 284 284 285 285 286 287 289 291 293 295 298 299 299 299 300 301 302 303 304 306 307 307 307
226 227 227 227 227 228 229 230 232 234 235 236 237 238 240 241 241 242 243 243 243 243 243 244 244 244 244 243 243 244 244 242 240 240 240 240 242 244 246 247 248 249 251 254 257 259 261 264 266 269 271 274 280 284 284 282 282 283 283 284 284 284 285 285 285 285 285 286 287 289 292 295 297 297 298 298 298 300 302 303 305 306 307 307 307
227 228 228 228 229 229 230 232 234 235 236 237 238 240 241 243 244 244 245 245 245 245 245 245 246 246 246 246 246 246 246 244 242 241 241 241 242 244 246 247 248 249 251 253 256 258 260 263 265 267 269 272 277 281 282 282 283 283 283 283 284 284 285 285 284 284 285 285 287 288 291 294 296 297 297 297 297 299 302 303 305 306 307 308 308
229 229 229 229 230 230 232 233 235 236 237 238 240 241 243 244 245 246 246 246 246 247 247 247 247 247 248 248 248 249 248 245 243 242 242 242 243 245 247 248 248 249 250 252 255 258 260 262 264 266 267 271 275 278 279 281 282 283 282 282 284 285 285 284 284 284 284 284 286 288 291 294 295 296 297 296 297 299 302 303 305 306 307 309 309
230 230 231 231 232 233 234 235 236 237 238 239 241 242 244 245 246 247 248 248 249 249 248 248 248 248 249 249 249 250 250 248 245 243 242 242 243 245 247 248 249 249 250 252 255 257 259 260 262 264 266 270 273 274 276 279 281 282 282 283 284 285 285 285 284 283 284 284 285 288 291 293 294 295 296 296 296 299 303 304 304 306 308 309 310
230 231 232 233 234 235 236 237 238 239 239 240 242 243 245 246 247 247 249 249 250 250 250 250 250 249 249 249 250 251 251 249 247 245 243 242 243 245 246 248 249 250 250 252 254 257 258 259 261 263 265 268 271 272 273 277 280 281 282 282 284 285 286 285 284 283 283 284 285 288 291 293 294 295 295 295 296 299 302 303 305 307 309 310 311
232 233 235 236 237 238 238 239 240 240 241 242 243 244 245 247 247 248 249 250 251 252 252 252 251 250 250 250 250 251 251 250 248 246 245 243 244 246 246 248 249 250 250 252 254 256 258 258 259 262 265 266 268 270 271 275 279 280 280 281 283 284 285 285 284 284 284 285 286 288 290 292 294 295 294 293 295 299 301 303 305 308 310 310 311
235 235 237 238 239 239 240 241 241 242 243 243 244 245 246 247 248 249 249 251 252 253 253 253 252 252 251 251 250 250 251 251 249 247 246 245 245 246 247 247 249 250 250 251 254 256 258 258 258 261 264 264 266 268 270 272 276 278 278 280 282 283 284 284 283 283 284 284 285 287 289 291 293 294 294 294 296 298 301 303 306 309 310 311 312
237 237 239 241 241 240 240 240 242 243 244 244 245 246 247 249 250 250 251 252 253 253 253 253 253 253 252 252 251 250 250 251 250 248 247 246 246 246 247 247 249 249 249 250 253 255 258 258 258 259 262 263 265 267 268 270 273 276 277 278 280 282 283 283 282 283 283 284 285 288 290 291 293 294 294 296 297 299 301 304 307 309 310 311 312
239 240 242 242 242 242 242 242 243 245 246 247 247 248 250 251 252 252 253 253 253 253 253 254 254 253 252 252 252 251 251 251 251 249 248 247 246 246 248 248 248 249 249 250 252 255 256 257 258 259 260 261 264 266 267 268 271 274 275 277 279 281 282 282 283 283 283 284 286 289 290 291 292 294 296 297 298 300 302 304 307 308 310 311 313
241 243 244 244 243 244 243 244 245 247 249 249 250 251 252 253 253 254 254 254 254 254 254 254 254 254 253 253 253 252 252 252 251 250 248 248 246 246 248 248 247 248 249 250 252 253 254 256 257 258 258 260 263 264 264 266 269 272 274 276 278 279 281 283 283 283 283 285 287 289 290 291 293 295 297 298 299 302 304 305 307 309 310 311 313
244 245 246 246 246 246 245 245 247 250 251 252 252 253 252 252 252 253 254 255 256 256 256 255 254 255 255 254 254 254 253 252 251 249 248 247 247 246 247 247 246 246 249 250 251 252 252 254 256 256 256 258 260 261 262 264 267 270 273 274 274 276 280 282 282 282 284 286 287 289 290 291 293 295 297 299 300 302 304 306 308 309 310 312 314
246 247 248 248 248 248 248 249 250 252 253 254 255 255 255 254 254 254 255 256 256 257 257 256 255 256 256 256 255 255 254 253 251 249 247 247 247 247 246 246 245 246 248 250 251 251 251 252 254 254 254 255 256 257 260 263 265 268 269 270 272 274 277 279 280 281 283 285 286 288 290 291 293 295 297 298 300 302 304 306 308 310 311 313 314
248 247 248 248 249 249 251 252 253 254 256 257 257 258 257 257 256 256 256 256 256 257 257 257 257 257 257 257 256 255 254 254 252 250 248 247 247 247 246 246 245 246 247 248 249 250 250 250 250 251 252 251 252 255 259 261 263 264 266 267 270 272 273 276 279 281 282 284 286 288 289 290 293 295 296 297 299 301 304 307 309 311 312 314 315
248 249 250 250 251 251 253 254 256 257 258 259 259 260 259 259 258 258 258 258 258 258 258 258 258 258 258 258 257 256 255 254 253 251 250 248 247 246 245 245 245 245 246 247 247 247 247 247 248 249 249 248 250 254 258 258 259 261 263 265 268 270 272 275 278 280 282 283 285 286 288 290 292 293 293 295 298 301 304 307 310 312 313 315 316
252 253 253 254 254 254 256 258 259 260 261 261 262 262 261 261 260 260 259 259 260 260 260 259 259 259 259 259 258 256 255 254 253 251 250 249 248 246 245 244 244 244 244 245 245 245 244 244 246 246 246 245 249 253 255 255 256 258 260 264 267 270 272 274 276 279 281 282 284 285 287 289 290 290 292 295 298 301 304 307 310 312 314 316 317
257 258 258 258 258 259 260 262 263 264 264 264 264 264 264 264 263 262 262 261 261 261 261 260 259 259 259 259 258 257 256 254 253 251 250 248 247 245 244 244 243 243 243 243 243 242 241 240 241 241 241 243 248 251 252 253 254 255 258 263 265 267 270 273 274 277 279 280 282 284 284 286 287 289 292 295 298 300 303 307 309 312 314 316 317
260 261 262 262 262 263 264 265 265 266 266 267 267 267 267 267 266 266 265 265 264 263 263 262 262 261 260 259 258 257 256 256 255 253 250 248 246 244 243 243 243 242 241 240 239 238 237 236 236 236 239 243 246 248 249 251 252 254 258 262 263 265 268 270 271 273 276 278 280 281 282 283 286 290 292 294 297 300 303 306 309 311 313 316 317
260 261 262 263 265 266 267 268 268 269 269 269 269 270 270 270 269 269 269 268 267 267 266 265 264 263 262 261 259 258 257 257 256 253 249 246 245 244 243 242 240 239 237 236 235 234 232 233 234 235 238 241 243 245 247 248 251 254 257 261 263 264 264 266 269 271 273 276 277 279 281 284 286 289 292 293 295 299 302 304 308 310 313 315 317
260 261 263 265 267 268 269 270 271 271 271 271 271 272 273 274 273 273 273 273 272 270 269 268 267 265 264 263 261 259 257 255 254 251 248 245 243 243 242 241 239 237 234 231 230 228 228 230 232 234 237 239 240 242 245 247 250 253 257 261 262 261 260 263 267 270 271 273 276 278 281 284 286 288 290 291 294 298 301 304 307 310 312 315 316
263 264 266 268 270 271 273 273 274 274 273 273 274 275 276 277 278 278 279 279 279 277 275 273 271 268 267 264 262 259 256 254 251 249 246 243 241 240 239 238 237 237 233 228 225 224 224 226 228 231 234 236 238 241 245 247 249 253 257 261 260 257 258 262 265 267 269 271 275 279 281 283 285 287 289 291 294 297 300 303 306 309 312 314 315
266 268 269 271 272 274 275 275 276 276 276 276 277 279 280 281 282 283 284 285 285 284 282 279 276 273 270 266 263 259 255 252 249 246 243 240 238 237 235 232 233 235 230 223 220 220 221 224 225 228 232 234 236 241 246 248 251 254 257 258 257 256 259 261 263 264 267 270 275 279 281 281 283 285 287 290 292 295 299 302 305 308 311 313 315
268 270 271 271 272 274 274 274 275 276 277 278 280 282 284 285 285 285 287 288 289 288 286 285 283 281 277 273 267 260 254 249 245 242 239 236 234 233 230 227 227 229 225 221 220 220 220 223 226 228 231 234 237 243 248 249 251 255 256 255 256 258 258 259 260 263 266 270 275 278 279 279 281 283 285 288 290 293 297 301 304 308 310 312 314
268 269 271 271 272 274 274 275 276 277 279 281 283 284 286 288 288 290 291 293 294 294 292 292 290 287 285 281 273 263 254 247 241 235 232 229 228 227 225 222 223 225 223 222 221 219 218 223 228 230 232 235 239 244 249 250 251 253 254 253 255 257 256 257 259 262 266 271 274 276 277 277 279 281 283 284 287 290 295 300 303 306 308 311 314
268 269 271 273 274 276 277 278 279 280 282 284 286 288 290 291 294 297 298 299 301 301 302 301 299 296 294 290 280 268 257 245 233 226 223 221 220 220 220 220 220 219 217 216 216 217 221 228 232 232 233 237 241 246 251 251 250 251 253 254 255 255 254 255 259 262 267 272 273 274 275 276 277 278 280 281 284 289 294 299 301 304 307 311 314
270 271 273 275 276 276 277 278 280 282 284 287 288 291 293 296 299 302 304 306 308 309 310 312 312 311 309 304 291 276 258 235 217 210 211 211 212 214 215 214 213 211 211 214 217 221 229 235 236 234 235 238 242 247 251 250 249 251 253 254 253 252 253 256 259 263 267 271 272 272 273 274 275 276 277 279 283 287 292 296 299 302 306 310 313
272 274 275 276 276 277 277 279 281 283 286 288 290 293 296 299 303 305 307 310 313 314 317 321 325 327 327 328 324 302 251 212 196 193 197 199 201 204 206 205 205 207 211 217 222 227 232 235 234 235 238 242 246 248 248 247 248 251 252 251 250 251 253 256 259 263 266 269 270 271 272 272 273 274 275 278 282 285 289 292 296 300 306 310 313
273 276 277 277 277 278 278 279 281 283 286 288 291 294 296 299 303 306 309 314 317 319 323 327 331 336 343 358 19 29 97 166 171 176 183 187 189 193 196 199 204 209 214 221 225 229 232 234 235 239 243 245 245 244 243 245 248 249 249 248 248 250 253 256 260 262 264 266 268 269 269 270 271 272 274 277 279 282 285 288 293 299 305 310 312
273 275 277 278 278 278 278 279 280 282 285 288 291 294 296 299 303 306 310 316 320 321 327 332 336 340 347 2 41 59 84 127 150 160 168 176 182 187 192 198 204 210 217 223 227 230 233 235 237 240 242 241 240 240 241 244 247 247 247 247 248 250 253 257 260 262 263 265 266 267 267 268 269 270 273 275 276 279 282 286 292 298 303 307 310
273 274 276 279 280 280 279 281 281 282 284 287 289 293 295 297 301 305 308 313 317 320 326 335 341 346 353 360 82 98 91 112 143 158 164 171 181 190 198 204 210 217 223 227 230 232 232 233 235 237 236 235 236 238 241 244 245 245 245 246 247 251 255 258 260 261 262 264 264 264 265 267 267 268 270 272 274 277 281 285 290 296 301 305 308
274 275 277 279 281 282 282 284 284 284 285 286 288 291 294 296 299 303 306 309 313 315 320 331 341 348 354 356 280 177 128 109 134 156 169 178 186 196 207 214 219 224 226 227 228 228 228 230 232 233 232 233 236 238 240 242 243 244 245 246 249 253 256 258 260 261 262 263 263 263 264 265 264 266 268 270 273 276 279 284 288 293 298 303 306
272 274 275 277 280 282 283 285 285 284 284 287 288 290 293 295 297 300 303 304 306 308 311 319 332 342 347 347 319 214 208 197 170 172 182 189 196 204 212 215 218 220 221 222 224 226 227 228 230 230 231 233 235 237 240 242 243 245 246 248 252 254 256 258 260 261 261 261 262 262 262 262 262 264 267 269 271 274 277 282 287 291 297 301 304
270 272 274 275 278 279 280 282 284 284 285 288 289 290 292 294 294 296 298 299 299 301 303 307 316 325 329 325 305 257 239 239 231 217 212 212 212 212 212 213 215 218 220 223 225 226 227 228 229 230 232 234 236 239 242 244 245 246 248 251 253 254 255 258 260 260 259 260 260 260 260 260 262 263 265 266 268 270 275 280 284 289 294 299 302
271 272 274 275 275 277 277 279 282 284 285 287 289 289 291 292 292 292 292 292 292 292 293 295 300 305 305 297 280 262 251 245 240 233 228 223 220 216 215 216 218 220 223 225 226 228 229 230 230 231 233 235 237 240 243 245 246 248 250 252 253 254 257 259 260 259 258 258 259 259 259 260 261 262 263 264 266 268 272 277 282 287 292 296 298
273 273 274 275 275 276 278 280 281 283 284 285 287 288 289 289 290 290 289 288 286 285 284 286 289 290 287 279 267 257 251 246 241 236 230 226 225 224 224 224 225 226 227 228 229 231 232 232 232 233 234 236 238 241 243 246 248 250 251 252 254 256 259 260 259 258 258 258 258 259 259 259 260 261 261 262 264 266 269 275 280 284 289 292 295
274 274 275 275 276 277 279 280 282 283 284 285 286 287 286 285 285 286 286 286 284 281 278 278 280 280 276 270 261 253 247 241 236 232 230 229 229 229 228 229 229 229 229 230 231 232 233 234 235 236 237 238 240 243 245 247 248 249 251 253 256 259 260 260 259 259 258 258 258 259 259 259 259 259 259 259 261 264 268 273 278 282 285 288 291
276 276 276 277 278 278 279 280 281 282 284 285 285 285 284 283 282 281 280 280 280 278 274 272 273 271 267 261 256 250 243 237 233 229 227 227 228 229 229 230 230 230 231 232 233 234 235 237 237 238 239 240 242 244 245 247 248 250 252 255 258 260 261 261 261 260 259 258 258 258 257 257 258 257 257 258 259 263 267 272 275 279 281 284 287
280 280 280 280 281 281 280 281 281 282 283 284 284 285 285 284 282 280 277 275 275 273 269 266 265 264 261 256 251 247 241 236 233 233 232 232 232 233 233 233 234 235 236 237 237 237 237 237 237 239 240 241 243 244 246 247 249 251 254 257 259 260 261 263 263 262 260 258 257 257 257 256 256 256 256 258 260 263 267 270 273 275 278 280 283
285 285 285 284 285 285 284 284 284 285 285 284 283 284 285 284 283 281 278 276 274 272 268 263 259 258 256 254 251 247 243 240 239 240 239 237 236 237 238 238 239 240 241 240 239 238 237 237 238 239 240 242 244 246 247 248 250 253 255 257 258 259 261 264 264 262 260 258 257 256 256 256 255 255 256 258 260 262 266 268 270 272 275 277 281
288 288 288 288 287 287 287 286 285 285 285 284 282 281 281 283 283 283 282 279 275 271 267 262 257 254 252 251 250 249 247 244 242 242 242 242 242 243 243 243 243 243 243 241 240 238 237 237 239 240 242 244 246 248 249 250 253 255 255 256 256 258 261 264 264 263 261 258 257 256 256 256 256 256 257 257 259 261 263 265 268 270 273 275 278